Location: Fouquenies
(49.4624°N, 2.0492°E)
Time: 15:46:11
(UTC+00:00)

SKYMED 2 - Pass Details

Date: 03 February 2023
Orbit: 621 x 623 km, 97.9° (Epoch: 26 March)

Event Time Altitude Azimuth Distance (km) Brightness Sun altitude
Rises 17:51:28 0° 16° (NNE) 2,921 6.7 -10.2°
Reaches altitude 10° 17:53:42 10° 20° (NNE) 2,009 5.9 -10.5°
Maximum altitude 17:58:02 62° 101° (E) 706 3.6 -11.2°
Drops below altitude 10° 18:02:20 10° 183° (S) 1,991 6.3 -11.9°
Sets 18:04:32 0° 187° (S) 2,892 7.2 -12.2°
